Retour au catalogue

FLOCK 4G 5

ActifScienceSSO
NORAD 62663·PAYLOAD·🇺🇸 United States

Lancé Jan 14, 2025 depuis Vandenberg Space Force Base

Loading…

Prochains Passages (prochaines 24 heures)

TLE

FraisSource: Space-Track

Époque: Sep 13, 2026, 23:15 UTC

1 62663U 25009BG  26256.96914986  .00007370  00000-0  24242-3 0  9996
2 62663  97.3981 339.1649 0003124  18.5818 341.5537 15.31815908 92525

Suivez FLOCK 4G 5 en temps réel avec AllMySat

Download on the App Store